Time,TemperatureF,DewpointF,PressureIn,WindDirection,WindDirectionDegrees,WindSpeedMPH,WindSpeedGustMPH,Humidity,HourlyPrecipIn,Conditions,Clouds,dailyrainin,SoftwareType,DateUTC
2013-05-16 00:02:00,48.0,46.0,29.70,SSW,205,0.0,0.0,93,0.00,,,0.14,,2013-05-16 04:02:00,
2013-05-16 00:12:00,48.0,46.0,29.70,SSW,205,0.0,0.0,93,0.00,,,0.14,,2013-05-16 04:12:00,
2013-05-16 00:23:00,47.0,45.0,29.70,SSW,205,0.0,0.0,92,0.00,,,0.14,,2013-05-16 04:23:00,
2013-05-16 00:33:00,47.0,45.0,29.67,SSW,205,0.0,0.0,92,0.00,,,0.14,,2013-05-16 04:33:00,
2013-05-16 00:42:00,47.0,45.0,29.67,SSW,205,0.0,0.0,92,0.00,,,0.14,,2013-05-16 04:42:00,
2013-05-16 00:53:00,46.0,44.0,29.67,SSW,205,0.0,0.0,93,0.00,,,0.14,,2013-05-16 04:53:00,
2013-05-16 01:02:00,46.0,44.0,29.67,SSW,205,0.0,0.0,93,0.00,,,0.14,,2013-05-16 05:02:00,
2013-05-16 01:12:00,46.0,44.0,29.67,SSW,205,0.0,0.0,93,0.00,,,0.14,,2013-05-16 05:12:00,
2013-05-16 01:22:00,46.0,44.0,29.67,SSW,205,0.0,0.0,93,0.00,,,0.14,,2013-05-16 05:22:00,
2013-05-16 01:32:00,46.0,44.0,29.67,SSW,205,0.0,0.0,94,0.00,,,0.14,,2013-05-16 05:32:00,
2013-05-16 01:42:00,46.0,44.0,29.67,SSW,205,0.0,0.0,94,0.00,,,0.14,,2013-05-16 05:42:00,
2013-05-16 01:52:00,46.0,44.0,29.67,SW,215,0.0,0.0,94,0.00,,,0.14,,2013-05-16 05:52:00,
2013-05-16 02:01:00,46.0,44.0,29.67,SW,215,0.0,0.0,94,0.00,,,0.14,,2013-05-16 06:01:00,
2013-05-16 02:12:00,46.0,44.0,29.67,SW,215,0.0,0.0,94,0.00,,,0.14,,2013-05-16 06:12:00,
2013-05-16 02:22:00,45.0,43.0,29.67,SW,215,0.0,0.0,94,0.00,,,0.14,,2013-05-16 06:22:00,
2013-05-16 02:33:00,45.0,43.0,29.67,SW,215,0.0,0.0,94,0.00,,,0.14,,2013-05-16 06:33:00,
2013-05-16 02:43:00,45.0,43.0,29.67,SW,215,0.0,0.0,94,0.00,,,0.14,,2013-05-16 06:43:00,
2013-05-16 02:53:00,46.0,44.0,29.67,SW,215,0.0,0.0,94,0.00,,,0.14,,2013-05-16 06:53:00,
2013-05-16 03:02:00,46.0,44.0,29.67,South,185,0.0,0.0,94,0.00,,,0.14,,2013-05-16 07:02:00,
2013-05-16 03:12:00,46.0,44.0,29.67,South,185,0.0,0.0,94,0.00,,,0.14,,2013-05-16 07:12:00,
2013-05-16 03:24:00,46.0,44.0,29.67,South,185,0.0,0.0,94,0.00,,,0.14,,2013-05-16 07:24:00,
2013-05-16 03:34:00,46.0,44.0,29.67,South,185,0.0,0.0,94,0.00,,,0.14,,2013-05-16 07:34:00,
2013-05-16 03:44:00,46.0,44.0,29.67,South,185,0.0,0.0,94,0.00,,,0.14,,2013-05-16 07:44:00,
2013-05-16 03:54:00,45.0,43.0,29.67,South,185,0.0,0.0,94,0.00,,,0.14,,2013-05-16 07:54:00,
2013-05-16 04:03:00,45.0,43.0,29.67,South,185,0.0,0.0,94,0.00,,,0.14,,2013-05-16 08:03:00,
2013-05-16 04:13:00,45.0,43.0,29.67,South,185,0.0,0.0,94,0.00,,,0.14,,2013-05-16 08:13:00,
2013-05-16 04:24:00,45.0,43.0,29.67,South,185,0.0,0.0,94,0.00,,,0.14,,2013-05-16 08:24:00,
2013-05-16 04:34:00,45.0,43.0,29.67,South,185,0.0,0.0,94,0.00,,,0.14,,2013-05-16 08:34:00,
2013-05-16 04:45:00,45.0,43.0,29.67,South,185,0.0,0.0,94,0.00,,,0.14,,2013-05-16 08:45:00,
2013-05-16 04:55:00,45.0,43.0,29.67,South,185,0.0,0.0,94,0.00,,,0.14,,2013-05-16 08:55:00,
2013-05-16 05:04:00,45.0,43.0,29.67,South,185,0.0,0.0,93,0.00,,,0.14,,2013-05-16 09:04:00,
2013-05-16 05:14:00,44.0,42.0,29.67,South,185,0.0,0.0,93,0.00,,,0.14,,2013-05-16 09:14:00,
2013-05-16 05:24:00,44.0,42.0,29.67,South,185,0.0,0.0,93,0.00,,,0.14,,2013-05-16 09:24:00,
2013-05-16 05:35:00,44.0,42.0,29.67,South,185,0.0,0.0,93,0.00,,,0.14,,2013-05-16 09:35:00,
2013-05-16 05:45:00,44.0,42.0,29.67,South,185,0.0,0.0,93,0.00,,,0.14,,2013-05-16 09:45:00,
2013-05-16 05:55:00,44.0,42.0,29.67,South,185,0.0,0.0,93,0.00,,,0.14,,2013-05-16 09:55:00,
2013-05-16 06:05:00,44.0,42.0,29.67,South,185,0.0,0.0,92,0.00,,,0.14,,2013-05-16 10:05:00,
2013-05-16 06:15:00,44.0,42.0,29.67,South,185,0.0,0.0,91,0.00,,,0.14,,2013-05-16 10:15:00,
2013-05-16 06:24:00,44.0,42.0,29.67,South,185,0.0,0.0,91,0.00,,,0.14,,2013-05-16 10:24:00,
2013-05-16 06:36:00,45.0,43.0,29.67,South,185,0.0,0.0,91,0.00,,,0.14,,2013-05-16 10:36:00,
2013-05-16 06:45:00,45.0,43.0,29.67,South,185,0.0,0.0,91,0.00,,,0.14,,2013-05-16 10:45:00,
2013-05-16 06:56:00,45.0,42.0,29.67,South,185,0.0,0.0,89,0.00,,,0.14,,2013-05-16 10:56:00,
2013-05-16 07:05:00,46.0,42.0,29.70,West,260,0.0,0.0,87,0.00,,,0.14,,2013-05-16 11:05:00,
2013-05-16 07:14:00,46.0,42.0,29.70,West,260,0.0,0.0,87,0.00,,,0.14,,2013-05-16 11:14:00,
2013-05-16 07:25:00,47.0,43.0,29.70,West,260,0.0,0.0,85,0.00,,,0.14,,2013-05-16 11:25:00,
2013-05-16 07:35:00,48.0,43.0,29.70,WSW,245,0.0,0.0,84,0.00,,,0.14,,2013-05-16 11:35:00,
2013-05-16 07:46:00,48.0,43.0,29.70,WSW,245,0.0,0.0,84,0.00,,,0.14,,2013-05-16 11:46:00,
2013-05-16 07:57:00,51.0,45.0,29.70,WNW,285,0.0,3.0,81,0.00,,,0.14,,2013-05-16 11:57:00,
2013-05-16 08:06:00,54.0,47.0,29.70,West,280,1.0,0.0,78,0.00,,,0.14,,2013-05-16 12:06:00,
2013-05-16 08:23:00,56.0,47.0,29.70,WSW,240,0.0,0.0,73,0.00,,,0.14,,2013-05-16 12:23:00,
2013-05-16 08:35:00,58.0,47.0,29.70,WNW,290,1.0,3.0,68,0.00,,,0.14,,2013-05-16 12:35:00,
2013-05-16 08:53:00,60.0,48.0,29.70,South,185,2.0,5.0,64,0.00,,,0.14,,2013-05-16 12:53:00,
2013-05-16 09:04:00,61.0,47.0,29.70,WSW,245,2.0,6.0,61,0.00,,,0.14,,2013-05-16 13:04:00,
2013-05-16 09:12:00,61.0,46.0,29.73,West,270,3.0,6.0,57,0.00,,,0.14,,2013-05-16 13:12:00,
2013-05-16 09:26:00,61.0,46.0,29.73,West,270,3.0,6.0,57,0.00,,,0.14,,2013-05-16 13:26:00,
2013-05-16 09:35:00,63.0,47.0,29.73,SW,235,5.0,10.0,56,0.00,,,0.14,,2013-05-16 13:35:00,
2013-05-16 09:43:00,63.0,47.0,29.73,SW,235,5.0,10.0,56,0.00,,,0.14,,2013-05-16 13:43:00,
2013-05-16 09:55:00,63.0,45.0,29.73,WSW,245,5.0,8.0,52,0.00,,,0.14,,2013-05-16 13:55:00,
2013-05-16 10:05:00,64.0,45.0,29.73,WSW,250,5.0,8.0,50,0.00,,,0.14,,2013-05-16 14:05:00,
2013-05-16 10:16:00,64.0,45.0,29.73,WSW,250,5.0,8.0,50,0.00,,,0.14,,2013-05-16 14:16:00,
2013-05-16 10:23:00,65.0,44.0,29.73,West,260,7.0,10.0,47,0.00,,,0.14,,2013-05-16 14:23:00,
2013-05-16 10:37:00,66.0,43.0,29.73,West,260,8.0,9.0,43,0.00,,,0.14,,2013-05-16 14:37:00,
2013-05-16 10:47:00,66.0,43.0,29.73,West,260,8.0,9.0,43,0.00,,,0.14,,2013-05-16 14:47:00,
2013-05-16 10:56:00,68.0,41.0,29.73,WNW,285,12.0,18.0,37,0.00,,,0.14,,2013-05-16 14:56:00,
2013-05-16 11:08:00,70.0,41.0,29.73,West,260,13.0,14.0,35,0.00,,,0.14,,2013-05-16 15:08:00,
2013-05-16 11:17:00,71.0,40.0,29.73,WNW,295,14.0,21.0,32,0.00,,,0.14,,2013-05-16 15:17:00,
2013-05-16 11:28:00,71.0,40.0,29.73,WNW,295,14.0,21.0,32,0.00,,,0.14,,2013-05-16 15:28:00,
2013-05-16 11:40:00,72.0,38.0,29.73,West,275,14.0,14.0,29,0.00,,,0.14,,2013-05-16 15:40:00,
2013-05-16 11:50:00,73.0,36.0,29.73,West,275,12.0,13.0,26,0.00,,,0.14,,2013-05-16 15:50:00,
2013-05-16 12:00:00,73.0,36.0,29.73,West,275,12.0,13.0,26,0.00,,,0.14,,2013-05-16 16:00:00,
2013-05-16 12:09:00,73.0,39.0,29.73,West,275,13.0,16.0,29,0.00,,,0.14,,2013-05-16 16:09:00,
2013-05-16 12:20:00,73.0,39.0,29.73,West,275,13.0,16.0,29,0.00,,,0.14,,2013-05-16 16:20:00,
2013-05-16 12:30:00,74.0,41.0,29.70,West,270,9.0,14.0,30,0.00,,,0.14,,2013-05-16 16:30:00,
2013-05-16 12:40:00,74.0,-99.9,29.70,NW,310,13.0,21.0,28,0.00,,,0.14,,2013-05-16 16:40:00,
2013-05-16 12:50:00,74.0,39.0,29.70,NW,310,13.0,21.0,28,0.00,,,0.14,,2013-05-16 16:50:00,
2013-05-16 13:01:00,74.0,37.0,29.70,WNW,290,12.0,17.0,26,0.00,,,0.14,,2013-05-16 17:01:00,
2013-05-16 13:10:00,75.0,40.0,29.70,WSW,245,14.0,16.0,28,0.00,,,0.14,,2013-05-16 17:10:00,
2013-05-16 13:20:00,75.0,40.0,29.70,WSW,245,14.0,16.0,28,0.00,,,0.14,,2013-05-16 17:20:00,
2013-05-16 13:31:00,75.0,41.0,29.70,WSW,255,13.0,18.0,29,0.00,,,0.14,,2013-05-16 17:31:00,
2013-05-16 13:40:00,75.0,39.0,29.70,West,265,12.0,14.0,27,0.00,,,0.14,,2013-05-16 17:40:00,
2013-05-16 13:50:00,75.0,-99.9,29.70,West,270,12.0,15.0,28,0.00,,,0.14,,2013-05-16 17:50:00,
2013-05-16 14:00:00,-999.0,-99.9,29.70,West,270,12.0,15.0,28,0.00,,,0.14,,2013-05-16 18:00:00,
2013-05-16 14:10:00,76.0,40.0,29.70,WNW,285,12.0,12.0,27,0.00,,,0.14,,2013-05-16 18:10:00,
2013-05-16 14:20:00,76.0,40.0,29.70,WNW,285,12.0,12.0,27,0.00,,,0.14,,2013-05-16 18:20:00,
2013-05-16 14:30:00,-999.0,-99.9,29.70,WNW,300,10.0,15.0,28,0.00,,,0.14,,2013-05-16 18:30:00,
2013-05-16 14:40:00,-999.0,-99.9,29.70,WNW,295,10.0,16.0,28,0.00,,,0.13,,2013-05-16 18:40:00,
2013-05-16 14:50:00,-999.0,-99.9,29.70,WNW,295,10.0,16.0,28,0.00,,,0.13,,2013-05-16 18:50:00,
2013-05-16 15:00:00,-999.0,-99.9,29.70,West,280,10.0,14.0,25,0.00,,,0.13,,2013-05-16 19:00:00,
2013-05-16 15:10:00,76.0,39.0,29.70,West,280,14.0,20.0,26,0.00,,,0.11,,2013-05-16 19:10:00,
2013-05-16 15:20:00,76.0,39.0,29.70,West,280,14.0,20.0,26,0.00,,,0.11,,2013-05-16 19:20:00,
2013-05-16 15:30:00,76.0,40.0,29.70,WNW,285,13.0,24.0,27,0.00,,,0.07,,2013-05-16 19:30:00,
2013-05-16 15:40:00,76.0,-99.9,29.70,WNW,285,16.0,20.0,25,0.00,,,0.01,,2013-05-16 19:40:00,
2013-05-16 15:50:00,-999.0,-99.9,29.70,WNW,285,16.0,20.0,25,0.00,,,0.01,,2013-05-16 19:50:00,
2013-05-16 16:01:00,-999.0,-99.9,29.67,WNW,295,13.0,20.0,27,0.00,,,0.00,,2013-05-16 20:01:00,
2013-05-16 16:10:00,-999.0,-99.9,29.67,WSW,250,10.0,15.0,25,0.00,,,0.00,,2013-05-16 20:10:00,
2013-05-16 16:20:00,76.0,-99.9,29.67,West,265,10.0,10.0,24,0.00,,,0.00,,2013-05-16 20:20:00,
2013-05-16 16:30:00,76.0,-99.9,29.67,West,265,10.0,10.0,24,0.00,,,0.00,,2013-05-16 20:30:00,
2013-05-16 16:40:00,-999.0,-99.9,29.67,West,275,15.0,24.0,24,0.00,,,0.00,,2013-05-16 20:40:00,
2013-05-16 16:50:00,75.0,35.0,29.67,WNW,290,17.0,23.0,23,0.00,,,0.00,,2013-05-16 20:50:00,
2013-05-16 17:00:00,75.0,-99.9,29.67,WNW,290,17.0,23.0,23,0.00,,,0.00,,2013-05-16 21:00:00,
2013-05-16 17:10:00,75.0,-99.9,29.67,WSW,255,13.0,14.0,25,0.00,,,0.00,,2013-05-16 21:10:00,
2013-05-16 17:20:00,75.0,-99.9,29.67,WSW,255,13.0,14.0,25,0.00,,,0.00,,2013-05-16 21:20:00,
2013-05-16 17:29:00,75.0,36.0,29.67,WNW,285,12.0,21.0,24,0.00,,,0.00,,2013-05-16 21:29:00,
2013-05-16 17:38:00,74.0,34.0,29.67,WNW,290,12.0,12.0,23,0.00,,,0.00,,2013-05-16 21:38:00,
2013-05-16 17:50:00,74.0,-99.9,29.67,WNW,290,12.0,12.0,23,0.00,,,0.00,,2013-05-16 21:50:00,
2013-05-16 18:00:00,-999.0,-99.9,29.67,West,280,9.0,14.0,23,0.00,,,0.00,,2013-05-16 22:00:00,
2013-05-16 18:08:00,74.0,34.0,29.67,West,280,10.0,14.0,23,0.00,,,0.00,,2013-05-16 22:08:00,
2013-05-16 18:21:00,74.0,34.0,29.67,West,280,10.0,14.0,23,0.00,,,0.00,,2013-05-16 22:21:00,
2013-05-16 18:30:00,74.0,35.0,29.67,West,280,10.0,16.0,24,0.00,,,0.00,,2013-05-16 22:30:00,
2013-05-16 18:40:00,73.0,34.0,29.67,WNW,295,14.0,16.0,24,0.00,,,0.00,,2013-05-16 22:40:00,
2013-05-16 18:51:00,73.0,34.0,29.67,WNW,295,14.0,16.0,24,0.00,,,0.00,,2013-05-16 22:51:00,
2013-05-16 19:01:00,72.0,32.0,29.67,West,275,15.0,21.0,23,0.00,,,0.00,,2013-05-16 23:01:00,
2013-05-16 19:06:00,71.0,33.0,29.70,WNW,300,14.0,18.0,25,0.00,,,0.00,,2013-05-16 23:06:00,
2013-05-16 19:16:00,70.0,32.0,29.70,West,275,10.0,16.0,24,0.00,,,0.00,,2013-05-16 23:16:00,
2013-05-16 19:24:00,70.0,32.0,29.70,West,275,10.0,16.0,24,0.00,,,0.00,,2013-05-16 23:24:00,
2013-05-16 19:35:00,69.0,33.0,29.70,West,270,9.0,16.0,26,0.00,,,0.00,,2013-05-16 23:35:00,
2013-05-16 19:45:00,69.0,33.0,29.70,West,270,9.0,16.0,26,0.00,,,0.00,,2013-05-16 23:45:00,
2013-05-16 19:54:00,68.0,33.0,29.70,WSW,255,10.0,16.0,27,0.00,,,0.00,,2013-05-16 23:54:00,
2013-05-16 20:02:00,68.0,31.0,29.73,WNW,285,9.0,14.0,25,0.00,,,0.00,,2013-05-17 00:02:00,
2013-05-16 20:13:00,68.0,31.0,29.73,WNW,285,9.0,14.0,25,0.00,,,0.00,,2013-05-17 00:13:00,
2013-05-16 20:22:00,67.0,29.0,29.73,West,260,9.0,10.0,24,0.00,,,0.00,,2013-05-17 00:22:00,
2013-05-16 20:33:00,66.0,29.0,29.73,West,280,9.0,15.0,25,0.00,,,0.00,,2013-05-17 00:33:00,
2013-05-16 20:43:00,66.0,29.0,29.73,West,280,9.0,15.0,25,0.00,,,0.00,,2013-05-17 00:43:00,
2013-05-16 20:53:00,65.0,30.0,29.73,WNW,290,9.0,10.0,27,0.00,,,0.00,,2013-05-17 00:53:00,
2013-05-16 21:03:00,64.0,29.0,29.76,WNW,290,9.0,18.0,27,0.00,,,0.00,,2013-05-17 01:03:00,
2013-05-16 21:12:00,64.0,29.0,29.76,WNW,290,9.0,18.0,27,0.00,,,0.00,,2013-05-17 01:12:00,
2013-05-16 21:23:00,64.0,30.0,29.76,West,280,8.0,12.0,28,0.00,,,0.00,,2013-05-17 01:23:00,
2013-05-16 21:32:00,63.0,29.0,29.76,WNW,295,9.0,15.0,28,0.00,,,0.00,,2013-05-17 01:32:00,
2013-05-16 21:43:00,63.0,29.0,29.76,WNW,295,9.0,15.0,28,0.00,,,0.00,,2013-05-17 01:43:00,
2013-05-16 21:52:00,62.0,29.0,29.76,NW,310,9.0,10.0,29,0.00,,,0.00,,2013-05-17 01:52:00,
2013-05-16 22:02:00,62.0,29.0,29.76,WNW,295,8.0,12.0,29,0.00,,,0.00,,2013-05-17 02:02:00,
2013-05-16 22:11:00,62.0,29.0,29.76,WNW,295,8.0,12.0,29,0.00,,,0.00,,2013-05-17 02:11:00,
2013-05-16 22:22:00,61.0,29.0,29.76,WNW,285,6.0,8.0,30,0.00,,,0.00,,2013-05-17 02:22:00,
2013-05-16 22:32:00,60.0,29.0,29.79,WNW,295,3.0,6.0,31,0.00,,,0.00,,2013-05-17 02:32:00,
2013-05-16 22:42:00,60.0,29.0,29.79,WNW,295,3.0,6.0,31,0.00,,,0.00,,2013-05-17 02:42:00,
2013-05-16 22:53:00,60.0,29.0,29.79,NW,305,1.0,3.0,31,0.00,,,0.00,,2013-05-17 02:53:00,
2013-05-16 23:02:00,58.0,28.0,29.79,SSE,160,0.0,1.0,32,0.00,,,0.00,,2013-05-17 03:02:00,
2013-05-16 23:11:00,58.0,28.0,29.79,SSE,160,0.0,1.0,32,0.00,,,0.00,,2013-05-17 03:11:00,
2013-05-16 23:23:00,58.0,33.0,29.82,WNW,295,2.0,6.0,38,0.00,,,0.00,,2013-05-17 03:23:00,
2013-05-16 23:34:00,56.0,32.0,29.79,WNW,285,3.0,6.0,40,0.00,,,0.00,,2013-05-17 03:34:00,
2013-05-16 23:43:00,56.0,32.0,29.79,WNW,285,3.0,6.0,40,0.00,,,0.00,,2013-05-17 03:43:00,
2013-05-16 23:53:00,56.0,34.0,29.82,WNW,285,5.0,6.0,44,0.00,,,0.00,,2013-05-17 03:53:00,